This is the latest recevied weather packets stored in our database for station/object G4KVI. If no packets are shown the sender has not sent any weather packets the latest 10 day(s).
| Time | Temp. | Humidity | Pressure | Rain* | Wind** | Luminosity | Snow |
|---|---|---|---|---|---|---|---|
| 1778169904 | 13.89° C | 60% | 1016.6 hPa | 0 mm | - | 26 W/m² | - |
| 1778169604 | 13.89° C | 60% | 1016.8 hPa | 0 mm | - | 19 W/m² | - |
| 1778169304 | 13.89° C | 60% | 1016.8 hPa | 0 mm | - | 21 W/m² | - |
| 1778169004 | 13.89° C | 59% | 1016.6 hPa | 0 mm | - | 35 W/m² | - |
| 1778168704 | 13.89° C | 59% | 1016.7 hPa | 0 mm | - | 46 W/m² | - |
| 1778168404 | 13.89° C | 58% | 1016.8 hPa | 0 mm | - | 55 W/m² | - |
| 1778168104 | 13.89° C | 58% | 1016.6 hPa | 0 mm | - | 65 W/m² | - |
| 1778167804 | 13.89° C | 58% | 1016.7 hPa | 0 mm | - | 67 W/m² | - |
| 1778167504 | 13.89° C | 57% | 1016.8 hPa | 0 mm | - | 72 W/m² | - |
| 1778167204 | 13.89° C | 58% | 1016.7 hPa | 0 mm | - | 78 W/m² | - |
| 1778166904 | 13.89° C | 58% | 1016.8 hPa | 0 mm | - | 63 W/m² | - |
| 1778166604 | 13.89° C | 58% | 1016.8 hPa | 0 mm | - | 72 W/m² | - |
| 1778166304 | 13.89° C | 58% | 1016.9 hPa | 0 mm | - | 0 W/m² | - |
| 1778166004 | 13.89° C | 58% | 1016.9 hPa | 0 mm | - | 82 W/m² | - |
| 1778165704 | 13.89° C | 57% | 1016.6 hPa | 0 mm | - | 70 W/m² | - |
| 1778165404 | 14.44° C | 57% | 1016.7 hPa | 0 mm | - | 72 W/m² | - |
| 1778165104 | 13.89° C | 58% | 1016.7 hPa | 0 mm | - | 92 W/m² | - |
| 1778164804 | 14.44° C | 57% | 1016.7 hPa | 0 mm | - | 105 W/m² | - |
| 1778164504 | 14.44° C | 57% | 1016.8 hPa | 0 mm | - | 121 W/m² | - |
| 1778164204 | 14.44° C | 56% | 1016.8 hPa | 0 mm | - | 140 W/m² | - |
| 1778163904 | 14.44° C | 57% | 1016.9 hPa | 0 mm | - | 169 W/m² | - |
| 1778163604 | 14.44° C | 57% | 1017 hPa | 0 mm | - | 203 W/m² | - |
| 1778163304 | 14.44° C | 56% | 1017 hPa | 0 mm | - | 231 W/m² | - |
| 1778163004 | 14.44° C | 58% | 1016.7 hPa | 0 mm | - | 226 W/m² | - |
| 1778162704 | 14.44° C | 58% | 1016.9 hPa | 0 mm | - | 209 W/m² | - |
* Rain latest hour (hover to see other rain measurements)
** Current wind speed in m/s (hover to see current wind gust speed)